Powrót do katalogu

COSMOS 1275 DEB

AktywnyPO
NORAD 39943·DEBRIS·🇷🇺 Russia

Wystrzelony Jun 4, 1981 z Plesetsk Cosmodrome

Loading…

Następne Przeloty (najbliższe 24 godziny)

TLE

ŚwieżeSource: Space-Track

Epoka: Sep 14, 2026, 15:53 UTC

1 39943U 81053ND  26257.66225022  .00000774  00000-0  90869-3 0  9995
2 39943  83.0654 139.4264 0145246 143.7125 247.0370 13.62585848608096

Śledź COSMOS 1275 DEB w czasie rzeczywistym z AllMySat

Download on the App Store